Mankato, MN

8:39 PM CDT on August 20, 2019 (GMT -0500)
Mankato Regional

Weather History for KMKT - May, 2019

Change the Weather History Date:

Wednesday, May 29, 2019

  Actual Average Record
Temperature  
Mean Temperature 62 °F -  
Max Temperature 72 °F 68 °F 96 °F (2018)
Min Temperature 53 °F 50 °F 48 °F (2005)
Degree Days  
Heating Degree Days 3    
Growing Degree Days 12 (Base 50)    
Moisture  
Dew Point 54 °F    
Average Humidity 79    
Maximum Humidity 100    
Minimum Humidity 55    
Precipitation  
Precipitation 0.14 in - - ()
Sea Level Pressure  
Sea Level Pressure 29.78 in    
Wind  
Wind Speed 5 mph (NE)    
Max Wind Speed 13 mph    
Max Gust Speed -    
Visibility 10 miles    
Events Rain    
Averages and records for this station are not official NWS values.
T = Trace of Precipitation, MM = Missing Value Source: NWS Daily Summary

Daily Weather History Graph

Daily Weather History Graph

Search for Another Location

Airport or City:

Astronomy

May. 29, 2019 Rise Set
Actual Time 5:36 AM CDT 8:49 PM CDT
Civil Twilight 5:01 AM CDT 9:25 PM CDT
Nautical Twilight 4:16 AM CDT 10:10 PM CDT
Astronomical Twilight 3:20 AM CDT 11:06 PM CDT
Moon 3:30 AM CDT (5/29) 3:45 PM CDT (5/29)
Length of Visible Light 16h 23m
Length of Day
15h 12m
Waning Crescent, 23% of the Moon is Illuminated
May 29
Waning Crescent
Jun 3
New
Jun 10
First Quarter
Jun 17
Full
Jun 25
Last Quarter

Hourly Weather History & Observations

Time (CDT) Temp. Dew Point Humidity Pressure Visibility Wind Dir Wind Speed Gust Speed Precip Events Conditions
12:56 AM 55.9 °F 53.1 °F 90% 29.80 in 10.0 mi Calm Calm - N/A   Clear
1:56 AM 55.0 °F 53.1 °F 93% 29.78 in 10.0 mi NE 4.6 mph - N/A   Clear
2:56 AM 55.9 °F 53.1 °F 90% 29.77 in 10.0 mi NE 5.8 mph - N/A   Clear
3:56 AM 54.0 °F 52.0 °F 93% 29.77 in 10.0 mi North 6.9 mph - N/A   Clear
4:56 AM 54.0 °F 52.0 °F 93% 29.77 in 10.0 mi NE 3.5 mph - N/A   Clear
5:56 AM 53.1 °F 52.0 °F 96% 29.80 in 10.0 mi NW 5.8 mph - N/A   Overcast
6:56 AM 54.0 °F 53.1 °F 97% 29.82 in 10.0 mi Calm Calm - 0.00 in Rain Light Rain
7:56 AM 54.0 °F 54.0 °F 100% 29.80 in 8.0 mi NNE 9.2 mph - 0.08 in Rain Rain
8:46 AM 55.4 °F 53.6 °F 94% 29.80 in 10.0 mi NNE 4.6 mph - 0.05 in   Overcast
8:56 AM 55.9 °F 55.0 °F 97% 29.81 in 10.0 mi NE 4.6 mph - 0.05 in   Overcast
9:56 AM 57.0 °F 54.0 °F 89% 29.83 in 10.0 mi Calm Calm - 0.00 in Rain Light Rain
10:56 AM 57.9 °F 55.9 °F 93% 29.82 in 10.0 mi NE 4.6 mph - 0.01 in Rain Light Rain
11:56 AM 62.1 °F 55.9 °F 80% 29.80 in 10.0 mi ENE 6.9 mph - 0.00 in   Scattered Clouds
12:56 PM 64.9 °F 55.9 °F 73% 29.81 in 10.0 mi ENE 10.4 mph - N/A   Partly Cloudy
1:56 PM 66.0 °F 55.9 °F 70% 29.78 in 10.0 mi NE 10.4 mph - N/A   Partly Cloudy
2:56 PM 69.1 °F 55.0 °F 61% 29.75 in 10.0 mi East 12.7 mph - N/A   Partly Cloudy
3:56 PM 70.0 °F 54.0 °F 57% 29.76 in 10.0 mi ENE 8.1 mph - N/A   Partly Cloudy
4:56 PM 71.1 °F 54.0 °F 55% 29.76 in 8.0 mi NNE 4.6 mph - N/A   Mostly Cloudy
5:56 PM 71.1 °F 55.0 °F 57% 29.75 in 10.0 mi NE 6.9 mph - N/A   Scattered Clouds
6:56 PM 70.0 °F 55.0 °F 59% 29.74 in 10.0 mi NE 6.9 mph - N/A   Overcast
7:56 PM 70.0 °F 53.1 °F 55% 29.74 in 10.0 mi ENE 6.9 mph - N/A   Overcast
8:56 PM 66.9 °F 55.0 °F 66% 29.74 in 10.0 mi NNE 3.5 mph - N/A   Clear
9:56 PM 66.0 °F 55.0 °F 68% 29.76 in 10.0 mi NE 3.5 mph - N/A   Scattered Clouds
10:56 PM 62.1 °F 55.0 °F 78% 29.76 in 10.0 mi NNE 6.9 mph - N/A   Clear
11:56 PM 62.1 °F 54.0 °F 75% 29.75 in 10.0 mi ESE 5.8 mph - N/A   Scattered Clouds